P/2017 S5 ( ATLAS )

Japanese version
Home page
Updated on September 10, 2020

---------------------------------------------------------------------

* Profile

Discovery Date September 27, 2017
Magnitude 18.2 mag
Discoverer Asteroid Terrestrial-impact Last Alert System (ATLAS) search program

* Pictures

* Orbital Elements

Epoch 2017 July 26.0 TT = JDT 2457960.5                                         
T 2017 July 27.96767 TT                                 Rudenko                 
q   2.1781505            (2000.0)            P               Q                  
n   0.17455910     Peri.   99.92093     +0.97101216     +0.13722587             
a   3.1708404      Node   252.39407     -0.19732263     +0.92229471             
e   0.3130684      Incl.   11.84900     +0.13490428     +0.36130531             
P   5.65                                                                        
From 428 observations 2017 July 22-2018 Jan. 18, mean residual 0".5.            

* Magnitudes Graph

        m1 = 10.0 + 5 log d + 20.0 log r

---------------------------------------------------------------------

The orbital elements are published on M.P.E.C. 2020-R04.
The magnitudes graphs are made with Comet for Windows.

---------------------------------------------------------------------

Copyright(C) Seiichi Yoshida (comet@aerith.net). All rights reserved.